Location: Unspecified
(0.0000°N, 0.0000°E)
Time: 23:21:58
(UTC+02:00)

Cosmos 1933 - Visible Passes

Search period start: 05 May 2015 00:00
Search period end: 15 May 2015 00:00
Orbit: 551 x 569 km, 82.5° (Epoch: 05 May)

Date Brightness Start Highest point End Pass type
(mag) Time Alt. Az. Time Alt. Az. Time Alt. Az.
05 May 6.1 20:17:06 10° SW 20:20:28 24° W 20:23:42 10° NNW visible
06 May 6.9 06:42:08 10° ENE 06:43:18 11° E 06:44:48 10° ESE visible
07 May 6.6 06:40:10 10° NE 06:42:18 14° E 06:44:41 10° ESE visible
08 May 6.4 06:38:33 10° NE 06:41:18 18° E 06:44:14 10° SE visible
09 May 6.0 06:37:06 10° NE 06:40:17 23° E 06:43:36 10° SE visible
10 May 5.5 06:35:45 10° NNE 06:39:16 28° E 06:42:52 10° SSE visible
11 May 5.0 06:34:28 10° NNE 06:38:14 36° E 06:42:03 10° SSE visible
12 May 4.5 06:33:16 10° NNE 06:37:12 46° E 06:41:10 10° SSE visible
13 May 3.9 06:32:07 10° N 06:36:09 59° E 06:40:13 10° SSE visible
14 May 3.5 06:31:00 10° N 06:35:06 77° E 06:39:14 10° S visible
